Location: Bonaustraße
(48.4603°N, 11.9280°E)
Time: 02:31:22
(UTC+01:00)

Envisat - Pass Details

Date: 26 January 2021
Orbit: 764 x 766 km, 98.1° (Epoch: 05 March)

Event Time Altitude Azimuth Distance (km) Brightness Sun altitude
Rises 04:56:21 0° 25° (NNE) 3,244 6.6 -28.4°
Reaches altitude 10° 04:59:10 10° 40° (NE) 2,312 6.0 -28.0°
Maximum altitude 05:03:06 22° 91° (E) 1,625 5.4 -27.3°
Drops below altitude 10° 05:07:00 10° 142° (SE) 2,297 5.9 -26.7°
Sets 05:09:47 0° 157° (SSE) 3,217 6.5 -26.2°
